Back to catalog

TELSTAR 3C R/B

PAM-D

AliveHEO
NORAD 15246·ROCKET BODY·🇺🇸 United States

Launched Aug 30, 1984 from Cape Canaveral Space Force Station

Loading…

Next Passes (next 24 hours)

TLE

FreshSource: Space-Track

Epoch: Sep 14, 2026, 01:04 UTC

1 15246U 84093G   26257.04491819  .00000779  00000-0  17612-2 0  9992
2 15246  24.7130 214.6199 7045139 347.2960   1.4167  2.51490621359612

Track TELSTAR 3C R/B in real time with AllMySat

Download on the App Store